Year,Month,Day,Hour,Minute,Value (Times are PST for temperature in C)
2015,09,22,00,00,9.70
2015,09,22,00,01,9.70
2015,09,22,00,02,9.70
2015,09,22,00,03,9.70
2015,09,22,00,04,9.70
2015,09,22,00,05,9.60
2015,09,22,00,06,9.60
2015,09,22,00,07,9.60
2015,09,22,00,08,9.60
2015,09,22,00,09,9.60
2015,09,22,00,10,9.50
2015,09,22,00,11,9.50
2015,09,22,00,12,9.50
2015,09,22,00,13,9.50
2015,09,22,00,14,9.40
2015,09,22,00,15,9.40
2015,09,22,00,16,9.40
2015,09,22,00,17,9.40
2015,09,22,00,18,9.40
2015,09,22,00,19,9.40
2015,09,22,00,20,9.40
2015,09,22,00,21,9.40
2015,09,22,00,22,9.40
2015,09,22,00,23,9.40
2015,09,22,00,24,9.40
2015,09,22,00,25,9.40
2015,09,22,00,26,9.40
2015,09,22,00,27,9.40
2015,09,22,00,28,9.40
2015,09,22,00,29,9.40
2015,09,22,00,30,9.30
2015,09,22,00,31,9.30
2015,09,22,00,32,9.20
2015,09,22,00,33,9.20
2015,09,22,00,34,9.20
2015,09,22,00,35,9.10
2015,09,22,00,36,9.10
2015,09,22,00,37,9.00
2015,09,22,00,38,9.00
2015,09,22,00,39,8.90
2015,09,22,00,40,8.90
2015,09,22,00,41,8.80
2015,09,22,00,42,8.80
2015,09,22,00,43,8.70
2015,09,22,00,44,8.70
2015,09,22,00,45,8.70
2015,09,22,00,46,8.70
2015,09,22,00,47,8.60
2015,09,22,00,48,8.60
2015,09,22,00,49,8.60
2015,09,22,00,50,8.50
2015,09,22,00,51,8.50
2015,09,22,00,52,8.50
2015,09,22,00,53,8.50
2015,09,22,00,54,8.40
2015,09,22,00,55,8.40
2015,09,22,00,56,8.40
2015,09,22,00,57,8.30
2015,09,22,00,58,8.30
2015,09,22,00,59,8.30
2015,09,22,01,00,8.20
2015,09,22,01,01,8.20
2015,09,22,01,02,8.20
2015,09,22,01,03,8.20
2015,09,22,01,04,8.20
2015,09,22,01,05,8.10
2015,09,22,01,06,8.10
2015,09,22,01,07,8.10
2015,09,22,01,08,8.10
2015,09,22,01,09,8.00
2015,09,22,01,10,8.00
2015,09,22,01,11,8.00
2015,09,22,01,12,8.00
2015,09,22,01,13,8.00
2015,09,22,01,14,8.00
2015,09,22,01,15,8.00
2015,09,22,01,16,8.00
2015,09,22,01,17,8.00
2015,09,22,01,18,8.00
2015,09,22,01,19,8.00
2015,09,22,01,20,7.90
2015,09,22,01,21,7.90
2015,09,22,01,22,7.90
2015,09,22,01,23,7.90
2015,09,22,01,24,7.80
2015,09,22,01,25,7.80
2015,09,22,01,26,7.80
2015,09,22,01,27,7.80
2015,09,22,01,28,7.80
2015,09,22,01,29,7.80
2015,09,22,01,30,7.70
2015,09,22,01,31,7.70
2015,09,22,01,32,7.70
2015,09,22,01,33,7.70
2015,09,22,01,34,7.70
2015,09,22,01,35,7.70
2015,09,22,01,36,7.60
2015,09,22,01,37,7.60
2015,09,22,01,38,7.60
2015,09,22,01,39,7.50
2015,09,22,01,40,7.50
2015,09,22,01,41,7.50
2015,09,22,01,42,7.40
2015,09,22,01,43,7.40
2015,09,22,01,44,7.40
2015,09,22,01,45,7.40
2015,09,22,01,46,7.40
2015,09,22,01,47,7.30
2015,09,22,01,48,7.30
2015,09,22,01,49,7.30
2015,09,22,01,50,7.30
2015,09,22,01,51,7.30
2015,09,22,01,52,7.30
2015,09,22,01,53,7.30
2015,09,22,01,54,7.30
2015,09,22,01,55,7.30
2015,09,22,01,56,7.30
2015,09,22,01,57,7.40
2015,09,22,01,58,7.40
2015,09,22,01,59,7.40
2015,09,22,02,00,7.40
2015,09,22,02,01,7.40
2015,09,22,02,02,7.40
2015,09,22,02,03,7.40
2015,09,22,02,04,7.40
2015,09,22,02,05,7.40
2015,09,22,02,06,7.40
2015,09,22,02,07,7.40
2015,09,22,02,08,7.40
2015,09,22,02,09,7.40
2015,09,22,02,10,7.40
2015,09,22,02,11,7.40
2015,09,22,02,12,7.30
2015,09,22,02,13,7.30
2015,09,22,02,14,7.30
2015,09,22,02,15,7.30
2015,09,22,02,16,7.20
2015,09,22,02,17,7.20
2015,09,22,02,18,7.10
2015,09,22,02,19,7.10
2015,09,22,02,20,7.10
2015,09,22,02,21,7.00
2015,09,22,02,22,7.00
2015,09,22,02,23,7.00
2015,09,22,02,24,7.00
2015,09,22,02,25,7.00
2015,09,22,02,26,7.10
2015,09,22,02,27,7.10
2015,09,22,02,28,7.10
2015,09,22,02,29,7.20
2015,09,22,02,30,7.20
2015,09,22,02,31,7.20
2015,09,22,02,32,7.30
2015,09,22,02,33,7.40
2015,09,22,02,34,7.50
2015,09,22,02,35,7.60
2015,09,22,02,36,7.70
2015,09,22,02,37,7.70
2015,09,22,02,38,7.80
2015,09,22,02,39,7.80
2015,09,22,02,40,7.80
2015,09,22,02,41,7.80
2015,09,22,02,42,7.80
2015,09,22,02,43,7.70
2015,09,22,02,44,7.70
2015,09,22,02,45,7.70
2015,09,22,02,46,7.60
2015,09,22,02,47,7.60
2015,09,22,02,48,7.60
2015,09,22,02,49,7.60
2015,09,22,02,50,7.60
2015,09,22,02,51,7.70
2015,09,22,02,52,7.70
2015,09,22,02,53,7.80
2015,09,22,02,54,7.80
2015,09,22,02,55,7.80
2015,09,22,02,56,7.80
2015,09,22,02,57,7.70
2015,09,22,02,58,7.70
2015,09,22,02,59,7.60
2015,09,22,03,00,7.60
2015,09,22,03,01,7.50
2015,09,22,03,02,7.50
2015,09,22,03,03,7.50
2015,09,22,03,04,7.40
2015,09,22,03,05,7.40
2015,09,22,03,06,7.30
2015,09,22,03,07,7.30
2015,09,22,03,08,7.30
2015,09,22,03,09,7.20
2015,09,22,03,10,7.20
2015,09,22,03,11,7.10
2015,09,22,03,12,7.10
2015,09,22,03,13,7.00
2015,09,22,03,14,7.00
2015,09,22,03,15,6.90
2015,09,22,03,16,6.90
2015,09,22,03,17,6.80
2015,09,22,03,18,6.80
2015,09,22,03,19,6.80
2015,09,22,03,20,6.80
2015,09,22,03,21,6.80
2015,09,22,03,22,6.80
2015,09,22,03,23,6.70
2015,09,22,03,24,6.70
2015,09,22,03,25,6.70
2015,09,22,03,26,6.70
2015,09,22,03,27,6.70
2015,09,22,03,28,6.70
2015,09,22,03,29,6.70
2015,09,22,03,30,6.70
2015,09,22,03,31,6.70
2015,09,22,03,32,6.70
2015,09,22,03,33,6.70
2015,09,22,03,34,6.60
2015,09,22,03,35,6.60
2015,09,22,03,36,6.60
2015,09,22,03,37,6.60
2015,09,22,03,38,6.60
2015,09,22,03,39,6.60
2015,09,22,03,40,6.60
2015,09,22,03,41,6.60
2015,09,22,03,42,6.60
2015,09,22,03,43,6.60
2015,09,22,03,44,6.50
2015,09,22,03,45,6.40
2015,09,22,03,46,6.40
2015,09,22,03,47,6.40
2015,09,22,03,48,6.40
2015,09,22,03,49,6.40
2015,09,22,03,50,6.40
2015,09,22,03,51,6.40
2015,09,22,03,52,6.40
2015,09,22,03,53,6.40
2015,09,22,03,54,6.40
2015,09,22,03,55,6.40
2015,09,22,03,56,6.50
2015,09,22,03,57,6.60
2015,09,22,03,58,6.50
2015,09,22,03,59,6.40
2015,09,22,04,00,6.40
2015,09,22,04,01,6.40
2015,09,22,04,02,6.40
2015,09,22,04,03,6.40
2015,09,22,04,04,6.30
2015,09,22,04,05,6.30
2015,09,22,04,06,6.20
2015,09,22,04,07,6.20
2015,09,22,04,08,6.20
2015,09,22,04,09,6.20
2015,09,22,04,10,6.20
2015,09,22,04,11,6.10
2015,09,22,04,12,6.10
2015,09,22,04,13,6.10
2015,09,22,04,14,6.10
2015,09,22,04,15,6.10
2015,09,22,04,16,6.00
2015,09,22,04,17,6.00
2015,09,22,04,18,6.00
2015,09,22,04,19,6.00
2015,09,22,04,20,6.00
2015,09,22,04,21,6.00
2015,09,22,04,22,6.00
2015,09,22,04,23,5.90
2015,09,22,04,24,5.90
2015,09,22,04,25,5.90
2015,09,22,04,26,5.90
2015,09,22,04,27,5.90
2015,09,22,04,28,5.80
2015,09,22,04,29,5.80
2015,09,22,04,30,5.80
2015,09,22,04,31,5.80
2015,09,22,04,32,5.80
2015,09,22,04,33,5.80
2015,09,22,04,34,5.80
2015,09,22,04,35,5.80
2015,09,22,04,36,5.80
2015,09,22,04,37,5.80
2015,09,22,04,38,5.80
2015,09,22,04,39,5.80
2015,09,22,04,40,5.80
2015,09,22,04,41,5.80
2015,09,22,04,42,5.80
2015,09,22,04,43,5.70
2015,09,22,04,44,5.70
2015,09,22,04,45,5.70
2015,09,22,04,46,5.70
2015,09,22,04,47,5.70
2015,09,22,04,48,5.70
2015,09,22,04,49,5.70
2015,09,22,04,50,5.70
2015,09,22,04,51,5.70
2015,09,22,04,52,5.70
2015,09,22,04,53,5.60
2015,09,22,04,54,5.60
2015,09,22,04,55,5.60
2015,09,22,04,56,5.60
2015,09,22,04,57,5.50
2015,09,22,04,58,5.50
2015,09,22,04,59,5.50
2015,09,22,05,00,5.50
2015,09,22,05,01,5.60
2015,09,22,05,02,5.60
2015,09,22,05,03,5.60
2015,09,22,05,04,5.60
2015,09,22,05,05,5.60
2015,09,22,05,06,5.60
2015,09,22,05,07,5.60
2015,09,22,05,08,5.60
2015,09,22,05,09,5.60
2015,09,22,05,10,5.60
2015,09,22,05,11,5.60
2015,09,22,05,12,5.50
2015,09,22,05,13,5.50
2015,09,22,05,14,5.50
2015,09,22,05,15,5.40
2015,09,22,05,16,5.40
2015,09,22,05,17,5.40
2015,09,22,05,18,5.50
2015,09,22,05,19,5.50
2015,09,22,05,20,5.50
2015,09,22,05,21,5.50
2015,09,22,05,22,5.50
2015,09,22,05,23,5.60
2015,09,22,05,24,5.60
2015,09,22,05,25,5.60
2015,09,22,05,26,5.60
2015,09,22,05,27,5.60
2015,09,22,05,28,5.60
2015,09,22,05,29,5.60
2015,09,22,05,30,5.60
2015,09,22,05,31,5.60
2015,09,22,05,32,5.60
2015,09,22,05,33,5.60
2015,09,22,05,34,5.60
2015,09,22,05,35,5.60
2015,09,22,05,36,5.60
2015,09,22,05,37,5.60
2015,09,22,05,38,5.60
2015,09,22,05,39,5.50
2015,09,22,05,40,5.50
2015,09,22,05,41,5.50
2015,09,22,05,42,5.50
2015,09,22,05,43,5.50
2015,09,22,05,44,5.50
2015,09,22,05,45,5.40
2015,09,22,05,46,5.40
2015,09,22,05,47,5.40
2015,09,22,05,48,5.40
2015,09,22,05,49,5.40
2015,09,22,05,50,5.30
2015,09,22,05,51,5.30
2015,09,22,05,52,5.30
2015,09,22,05,53,5.30
2015,09,22,05,54,5.30
2015,09,22,05,55,5.30
2015,09,22,05,56,5.30
2015,09,22,05,57,5.30
2015,09,22,05,58,5.30
2015,09,22,05,59,5.30
2015,09,22,06,00,5.30
2015,09,22,06,01,5.30
2015,09,22,06,02,5.40
2015,09,22,06,03,5.40
2015,09,22,06,04,5.40
2015,09,22,06,05,5.40
2015,09,22,06,06,5.40
2015,09,22,06,07,5.40
2015,09,22,06,08,5.40
2015,09,22,06,09,5.30
2015,09,22,06,10,5.30
2015,09,22,06,11,5.30
2015,09,22,06,12,5.30
2015,09,22,06,13,5.30
2015,09,22,06,14,5.30
2015,09,22,06,15,5.30
2015,09,22,06,16,5.30
2015,09,22,06,17,5.30
2015,09,22,06,18,5.30
2015,09,22,06,19,5.30
2015,09,22,06,20,5.20
2015,09,22,06,21,5.20
2015,09,22,06,22,5.20
2015,09,22,06,23,5.20
2015,09,22,06,24,5.10
2015,09,22,06,25,5.10
2015,09,22,06,26,5.10
2015,09,22,06,27,5.10
2015,09,22,06,28,5.10
2015,09,22,06,29,5.10
2015,09,22,06,30,5.10
2015,09,22,06,31,5.10
2015,09,22,06,32,5.10
2015,09,22,06,33,5.10
2015,09,22,06,34,5.10
2015,09,22,06,35,5.10
2015,09,22,06,36,5.10
2015,09,22,06,37,5.20
2015,09,22,06,38,5.20
2015,09,22,06,39,5.20
2015,09,22,06,40,5.30
2015,09,22,06,41,5.30
2015,09,22,06,42,5.30
2015,09,22,06,43,5.30
2015,09,22,06,44,5.30
2015,09,22,06,45,5.30
2015,09,22,06,46,5.30
2015,09,22,06,47,5.30
2015,09,22,06,48,5.30
2015,09,22,06,49,5.20
2015,09,22,06,50,5.20
2015,09,22,06,51,5.20
2015,09,22,06,52,5.10
2015,09,22,06,53,5.10
2015,09,22,06,54,5.10
2015,09,22,06,55,5.10
2015,09,22,06,56,5.10
2015,09,22,06,57,5.10
2015,09,22,06,58,5.10
2015,09,22,06,59,5.10
2015,09,22,07,00,5.10
2015,09,22,07,01,5.10
2015,09,22,07,02,5.10
2015,09,22,07,03,5.10
2015,09,22,07,04,5.10
2015,09,22,07,05,5.10
2015,09,22,07,06,5.10
2015,09,22,07,07,5.10
2015,09,22,07,08,5.10
2015,09,22,07,09,5.10
2015,09,22,07,10,5.10
2015,09,22,07,11,5.10
2015,09,22,07,12,5.10
2015,09,22,07,13,5.10
2015,09,22,07,14,5.10
2015,09,22,07,15,5.10
2015,09,22,07,16,5.10
2015,09,22,07,17,5.10
2015,09,22,07,18,5.10
2015,09,22,07,19,5.10
2015,09,22,07,20,5.10
2015,09,22,07,21,5.10
2015,09,22,07,22,5.10
2015,09,22,07,23,5.10
2015,09,22,07,24,5.10
2015,09,22,07,25,5.10
2015,09,22,07,26,5.10
2015,09,22,07,27,5.10
2015,09,22,07,28,5.10
2015,09,22,07,29,5.20
2015,09,22,07,30,5.20
2015,09,22,07,31,5.20
2015,09,22,07,32,5.20
2015,09,22,07,33,5.20
2015,09,22,07,34,5.20
2015,09,22,07,35,5.20
2015,09,22,07,36,5.20
2015,09,22,07,37,5.20
2015,09,22,07,38,5.20
2015,09,22,07,39,5.30
2015,09,22,07,40,5.30
2015,09,22,07,41,5.30
2015,09,22,07,42,5.40
2015,09,22,07,43,5.50
2015,09,22,07,44,5.60
2015,09,22,07,45,5.70
2015,09,22,07,46,5.70
2015,09,22,07,47,5.70
2015,09,22,07,48,5.70
2015,09,22,07,49,5.70
2015,09,22,07,50,5.70
2015,09,22,07,51,5.80
2015,09,22,07,52,5.80
2015,09,22,07,53,5.80
2015,09,22,07,54,5.80
2015,09,22,07,55,5.90
2015,09,22,07,56,5.90
2015,09,22,07,57,5.90
2015,09,22,07,58,6.00
2015,09,22,07,59,6.00
2015,09,22,08,00,6.00
2015,09,22,08,01,6.00
2015,09,22,08,02,6.10
2015,09,22,08,03,6.10
2015,09,22,08,04,6.20
2015,09,22,08,05,6.20
2015,09,22,08,06,6.30
2015,09,22,08,07,6.30
2015,09,22,08,08,6.40
2015,09,22,08,09,6.40
2015,09,22,08,10,6.40
2015,09,22,08,11,6.50
2015,09,22,08,12,6.60
2015,09,22,08,13,6.60
2015,09,22,08,14,6.60
2015,09,22,08,15,6.60
2015,09,22,08,16,6.60
2015,09,22,08,17,6.70
2015,09,22,08,18,6.70
2015,09,22,08,19,6.70
2015,09,22,08,20,6.80
2015,09,22,08,21,6.80
2015,09,22,08,22,6.80
2015,09,22,08,23,6.90
2015,09,22,08,24,6.90
2015,09,22,08,25,7.00
2015,09,22,08,26,7.00
2015,09,22,08,27,7.00
2015,09,22,08,28,7.10
2015,09,22,08,29,7.20
2015,09,22,08,30,7.20
2015,09,22,08,31,7.30
2015,09,22,08,32,7.30
2015,09,22,08,33,7.40
2015,09,22,08,34,7.50
2015,09,22,08,35,7.60
2015,09,22,08,36,7.60
2015,09,22,08,37,7.70
2015,09,22,08,38,7.80
2015,09,22,08,39,7.80
2015,09,22,08,40,7.90
2015,09,22,08,41,7.90
2015,09,22,08,42,8.00
2015,09,22,08,43,8.10
2015,09,22,08,44,8.10
2015,09,22,08,45,8.20
2015,09,22,08,46,8.30
2015,09,22,08,47,8.40
2015,09,22,08,48,8.50
2015,09,22,08,49,8.60
2015,09,22,08,50,8.70
2015,09,22,08,51,8.70
2015,09,22,08,52,8.80
2015,09,22,08,53,8.90
2015,09,22,08,54,8.90
2015,09,22,08,55,9.00
2015,09,22,08,56,9.00
2015,09,22,08,57,9.10
2015,09,22,08,58,9.10
2015,09,22,08,59,9.10
2015,09,22,09,00,9.20
2015,09,22,09,01,9.20
2015,09,22,09,02,9.30
2015,09,22,09,03,9.40
2015,09,22,09,04,9.40
2015,09,22,09,05,9.50
2015,09,22,09,06,9.60
2015,09,22,09,07,9.70
2015,09,22,09,08,9.70
2015,09,22,09,09,9.80
2015,09,22,09,10,9.90
2015,09,22,09,11,10.00
2015,09,22,09,12,10.10
2015,09,22,09,13,10.10
2015,09,22,09,14,10.20
2015,09,22,09,15,10.30
2015,09,22,09,16,10.40
2015,09,22,09,17,10.40
2015,09,22,09,18,10.50
2015,09,22,09,19,10.60
2015,09,22,09,20,10.70
2015,09,22,09,21,10.80
2015,09,22,09,22,10.90
2015,09,22,09,23,11.00
2015,09,22,09,24,11.10
2015,09,22,09,25,11.20
2015,09,22,09,26,11.30
2015,09,22,09,27,11.30
2015,09,22,09,28,11.40
2015,09,22,09,29,11.40
2015,09,22,09,30,11.40
2015,09,22,09,31,11.40
2015,09,22,09,32,11.40
2015,09,22,09,33,11.50
2015,09,22,09,34,11.60
2015,09,22,09,35,11.60
2015,09,22,09,36,11.70
2015,09,22,09,37,11.80
2015,09,22,09,38,11.80
2015,09,22,09,39,11.90
2015,09,22,09,40,12.00
2015,09,22,09,41,12.00
2015,09,22,09,42,12.10
2015,09,22,09,43,12.20
2015,09,22,09,44,12.20
2015,09,22,09,45,12.20
2015,09,22,09,46,12.30
2015,09,22,09,47,12.40
2015,09,22,09,48,12.50
2015,09,22,09,49,12.70
2015,09,22,09,50,12.80
2015,09,22,09,51,12.80
2015,09,22,09,52,13.00
2015,09,22,09,53,13.00
2015,09,22,09,54,13.10
2015,09,22,09,55,13.10
2015,09,22,09,56,13.10
2015,09,22,09,57,13.10
2015,09,22,09,58,13.10
2015,09,22,09,59,13.10
2015,09,22,10,00,13.00
2015,09,22,10,01,13.00
2015,09,22,10,02,13.10
2015,09,22,10,03,13.20
2015,09,22,10,04,13.20
2015,09,22,10,05,13.20
2015,09,22,10,06,13.30
2015,09,22,10,07,13.40
2015,09,22,10,08,13.50
2015,09,22,10,09,13.60
2015,09,22,10,10,13.70
2015,09,22,10,11,13.60
2015,09,22,10,12,13.70
2015,09,22,10,13,13.60
2015,09,22,10,14,13.60
2015,09,22,10,15,13.70
2015,09,22,10,16,13.70
2015,09,22,10,17,13.70
2015,09,22,10,18,13.80
2015,09,22,10,19,13.90
2015,09,22,10,20,13.90
2015,09,22,10,21,13.90
2015,09,22,10,22,13.90
2015,09,22,10,23,14.00
2015,09,22,10,24,14.00
2015,09,22,10,25,14.10
2015,09,22,10,26,14.20
2015,09,22,10,27,14.20
2015,09,22,10,28,14.20
2015,09,22,10,29,14.00
2015,09,22,10,30,13.90
2015,09,22,10,31,13.90
2015,09,22,10,32,13.90
2015,09,22,10,33,14.00
2015,09,22,10,34,14.00
2015,09,22,10,35,13.90
2015,09,22,10,36,13.90
2015,09,22,10,37,13.80
2015,09,22,10,38,13.80
2015,09,22,10,39,13.80
2015,09,22,10,40,13.70
2015,09,22,10,41,13.70
2015,09,22,10,42,13.70
2015,09,22,10,43,13.60
2015,09,22,10,44,13.60
2015,09,22,10,45,13.60
2015,09,22,10,46,13.60
2015,09,22,10,47,13.70
2015,09,22,10,48,13.70
2015,09,22,10,49,13.70
2015,09,22,10,50,13.70
2015,09,22,10,51,13.80
2015,09,22,10,52,13.80
2015,09,22,10,53,13.90
2015,09,22,10,54,13.90
2015,09,22,10,55,13.90
2015,09,22,10,56,13.90
2015,09,22,10,57,14.00
2015,09,22,10,58,14.10
2015,09,22,10,59,14.20
2015,09,22,11,00,14.20
2015,09,22,11,01,14.20
2015,09,22,11,02,14.20
2015,09,22,11,03,14.30
2015,09,22,11,04,14.40
2015,09,22,11,05,14.50
2015,09,22,11,06,14.50
2015,09,22,11,07,14.40
2015,09,22,11,08,14.40
2015,09,22,11,09,14.20
2015,09,22,11,10,14.10
2015,09,22,11,11,14.10
2015,09,22,11,12,14.10
2015,09,22,11,13,14.20
2015,09,22,11,14,14.20
2015,09,22,11,15,14.20
2015,09,22,11,16,14.20
2015,09,22,11,17,14.20
2015,09,22,11,18,14.10
2015,09,22,11,19,14.00
2015,09,22,11,20,14.00
2015,09,22,11,21,14.00
2015,09,22,11,22,14.10
2015,09,22,11,23,14.20
2015,09,22,11,24,14.20
2015,09,22,11,25,14.20
2015,09,22,11,26,14.20
2015,09,22,11,27,14.20
2015,09,22,11,28,14.10
2015,09,22,11,29,14.10
2015,09,22,11,30,14.10
2015,09,22,11,31,14.20
2015,09,22,11,32,14.30
2015,09,22,11,33,14.30
2015,09,22,11,34,14.40
2015,09,22,11,35,14.50
2015,09,22,11,36,14.50
2015,09,22,11,37,14.40
2015,09,22,11,38,14.50
2015,09,22,11,39,14.40
2015,09,22,11,40,14.30
2015,09,22,11,41,14.30
2015,09,22,11,42,14.40
2015,09,22,11,43,14.50
2015,09,22,11,44,14.40
2015,09,22,11,45,14.50
2015,09,22,11,46,14.50
2015,09,22,11,47,14.60
2015,09,22,11,48,14.70
2015,09,22,11,49,14.80
2015,09,22,11,50,14.90
2015,09,22,11,51,15.10
2015,09,22,11,52,15.20
2015,09,22,11,53,15.30
2015,09,22,11,54,15.20
2015,09,22,11,55,15.00
2015,09,22,11,56,14.80
2015,09,22,11,57,14.80
2015,09,22,11,58,14.80
2015,09,22,11,59,14.70
2015,09,22,12,00,14.70
2015,09,22,12,01,14.70
2015,09,22,12,02,14.70
2015,09,22,12,03,14.80
2015,09,22,12,04,14.90
2015,09,22,12,05,15.00
2015,09,22,12,06,15.20
2015,09,22,12,07,15.20
2015,09,22,12,08,15.30
2015,09,22,12,09,15.50
2015,09,22,12,10,15.50
2015,09,22,12,11,15.60
2015,09,22,12,12,15.70
2015,09,22,12,13,15.80
2015,09,22,12,14,15.80
2015,09,22,12,15,15.70
2015,09,22,12,16,15.60
2015,09,22,12,17,15.50
2015,09,22,12,18,15.50
2015,09,22,12,19,15.50
2015,09,22,12,20,15.60
2015,09,22,12,21,15.60
2015,09,22,12,22,15.70
2015,09,22,12,23,15.70
2015,09,22,12,24,15.70
2015,09,22,12,25,15.70
2015,09,22,12,26,15.60
2015,09,22,12,27,15.60
2015,09,22,12,28,15.60
2015,09,22,12,29,15.60
2015,09,22,12,30,15.50
2015,09,22,12,31,15.60
2015,09,22,12,32,15.50
2015,09,22,12,33,15.40
2015,09,22,12,34,15.30
2015,09,22,12,35,15.30
2015,09,22,12,36,15.30
2015,09,22,12,37,15.20
2015,09,22,12,38,15.10
2015,09,22,12,39,15.00
2015,09,22,12,40,15.00
2015,09,22,12,41,15.00
2015,09,22,12,42,15.00
2015,09,22,12,43,15.10
2015,09,22,12,44,15.20
2015,09,22,12,45,15.40
2015,09,22,12,46,15.50
2015,09,22,12,47,15.40
2015,09,22,12,48,15.30
2015,09,22,12,49,15.20
2015,09,22,12,50,15.30
2015,09,22,12,51,15.30
2015,09,22,12,52,15.30
2015,09,22,12,53,15.30
2015,09,22,12,54,15.30
2015,09,22,12,55,15.30
2015,09,22,12,56,15.20
2015,09,22,12,57,15.00
2015,09,22,12,58,15.00
2015,09,22,12,59,15.00
2015,09,22,13,00,15.00
2015,09,22,13,01,14.90
2015,09,22,13,02,14.90
2015,09,22,13,03,15.00
2015,09,22,13,04,15.10
2015,09,22,13,05,15.20
2015,09,22,13,06,15.30
2015,09,22,13,07,15.30
2015,09,22,13,08,15.30
2015,09,22,13,09,15.40
2015,09,22,13,10,15.50
2015,09,22,13,11,15.50
2015,09,22,13,12,15.60
2015,09,22,13,13,15.70
2015,09,22,13,14,15.70
2015,09,22,13,15,15.80
2015,09,22,13,16,15.80
2015,09,22,13,17,15.70
2015,09,22,13,18,15.50
2015,09,22,13,19,15.50
2015,09,22,13,20,15.60
2015,09,22,13,21,15.60
2015,09,22,13,22,15.60
2015,09,22,13,23,15.60
2015,09,22,13,24,15.70
2015,09,22,13,25,15.70
2015,09,22,13,26,15.70
2015,09,22,13,27,15.80
2015,09,22,13,28,15.90
2015,09,22,13,29,16.00
2015,09,22,13,30,16.10
2015,09,22,13,31,16.10
2015,09,22,13,32,16.10
2015,09,22,13,33,16.10
2015,09,22,13,34,16.10
2015,09,22,13,35,16.10
2015,09,22,13,36,16.20
2015,09,22,13,37,16.30
2015,09,22,13,38,16.40
2015,09,22,13,39,16.30
2015,09,22,13,40,16.20
2015,09,22,13,41,16.20
2015,09,22,13,42,16.20
2015,09,22,13,43,16.20
2015,09,22,13,44,16.20
2015,09,22,13,45,16.30
2015,09,22,13,46,16.40
2015,09,22,13,47,16.40
2015,09,22,13,48,16.30
2015,09,22,13,49,16.20
2015,09,22,13,50,16.10
2015,09,22,13,51,15.90
2015,09,22,13,52,15.90
2015,09,22,13,53,15.80
2015,09,22,13,54,15.60
2015,09,22,13,55,15.60
2015,09,22,13,56,15.60
2015,09,22,13,57,15.70
2015,09,22,13,58,15.80
2015,09,22,13,59,16.00
2015,09,22,14,00,16.10
2015,09,22,14,01,16.10
2015,09,22,14,02,16.10
2015,09,22,14,03,16.10
2015,09,22,14,04,16.10
2015,09,22,14,05,16.10
2015,09,22,14,06,16.10
2015,09,22,14,07,16.10
2015,09,22,14,08,16.10
2015,09,22,14,09,15.90
2015,09,22,14,10,15.90
2015,09,22,14,11,15.80
2015,09,22,14,12,15.80
2015,09,22,14,13,15.80
2015,09,22,14,14,15.80
2015,09,22,14,15,16.00
2015,09,22,14,16,16.10
2015,09,22,14,17,16.10
2015,09,22,14,18,16.20
2015,09,22,14,19,16.10
2015,09,22,14,20,16.00
2015,09,22,14,21,16.10
2015,09,22,14,22,16.10
2015,09,22,14,23,16.20
2015,09,22,14,24,16.20
2015,09,22,14,25,16.30
2015,09,22,14,26,16.30
2015,09,22,14,27,16.30
2015,09,22,14,28,16.30
2015,09,22,14,29,16.20
2015,09,22,14,30,16.10
2015,09,22,14,31,15.90
2015,09,22,14,32,15.60
2015,09,22,14,33,15.40
2015,09,22,14,34,15.50
2015,09,22,14,35,15.60
2015,09,22,14,36,15.40
2015,09,22,14,37,15.30
2015,09,22,14,38,15.30
2015,09,22,14,39,15.30
2015,09,22,14,40,15.30
2015,09,22,14,41,15.20
2015,09,22,14,42,15.20
2015,09,22,14,43,15.20
2015,09,22,14,44,15.20
2015,09,22,14,45,15.30
2015,09,22,14,46,15.30
2015,09,22,14,47,15.20
2015,09,22,14,48,15.10
2015,09,22,14,49,15.00
2015,09,22,14,50,14.90
2015,09,22,14,51,14.80
2015,09,22,14,52,14.80
2015,09,22,14,53,14.80
2015,09,22,14,54,14.90
2015,09,22,14,55,14.90
2015,09,22,14,56,15.00
2015,09,22,14,57,15.00
2015,09,22,14,58,15.10
2015,09,22,14,59,15.20
2015,09,22,15,00,15.40
2015,09,22,15,01,15.50
2015,09,22,15,02,15.50
2015,09,22,15,03,15.50
2015,09,22,15,04,15.50
2015,09,22,15,05,15.50
2015,09,22,15,06,15.40
2015,09,22,15,07,15.30
2015,09,22,15,08,15.20
2015,09,22,15,09,15.20
2015,09,22,15,10,15.30
2015,09,22,15,11,15.30
2015,09,22,15,12,15.20
2015,09,22,15,13,15.10
2015,09,22,15,14,15.10
2015,09,22,15,15,15.10
2015,09,22,15,16,15.20
2015,09,22,15,17,15.10
2015,09,22,15,18,15.00
2015,09,22,15,19,15.00
2015,09,22,15,20,15.10
2015,09,22,15,21,15.10
2015,09,22,15,22,15.20
2015,09,22,15,23,15.10
2015,09,22,15,24,15.10
2015,09,22,15,25,15.00
2015,09,22,15,26,15.00
2015,09,22,15,27,15.00
2015,09,22,15,28,15.10
2015,09,22,15,29,15.10
2015,09,22,15,30,15.10
2015,09,22,15,31,15.20
2015,09,22,15,32,15.20
2015,09,22,15,33,15.30
2015,09,22,15,34,15.20
2015,09,22,15,35,15.30
2015,09,22,15,36,15.40
2015,09,22,15,37,15.50
2015,09,22,15,38,15.50
2015,09,22,15,39,15.50
2015,09,22,15,40,15.60
2015,09,22,15,41,15.60
2015,09,22,15,42,15.60
2015,09,22,15,43,15.50
2015,09,22,15,44,15.50
2015,09,22,15,45,15.60
2015,09,22,15,46,15.50
2015,09,22,15,47,15.50
2015,09,22,15,48,15.40
2015,09,22,15,49,15.30
2015,09,22,15,50,15.20
2015,09,22,15,51,15.20
2015,09,22,15,52,15.20
2015,09,22,15,53,15.30
2015,09,22,15,54,15.30
2015,09,22,15,55,15.40
2015,09,22,15,56,15.50
2015,09,22,15,57,15.60
2015,09,22,15,58,15.50
2015,09,22,15,59,15.50
2015,09,22,16,00,15.50
2015,09,22,16,01,15.40
2015,09,22,16,02,15.50
2015,09,22,16,03,15.50
2015,09,22,16,04,15.60
2015,09,22,16,05,15.60
2015,09,22,16,06,15.60
2015,09,22,16,07,15.60
2015,09,22,16,08,15.70
2015,09,22,16,09,15.70
2015,09,22,16,10,15.70
2015,09,22,16,11,15.70
2015,09,22,16,12,15.70
2015,09,22,16,13,15.70
2015,09,22,16,14,15.50
2015,09,22,16,15,15.30
2015,09,22,16,16,15.20
2015,09,22,16,17,15.20
2015,09,22,16,18,15.10
2015,09,22,16,19,15.10
2015,09,22,16,20,15.20
2015,09,22,16,21,15.00
2015,09,22,16,22,14.90
2015,09,22,16,23,14.80
2015,09,22,16,24,14.80
2015,09,22,16,25,14.90
2015,09,22,16,26,14.90
2015,09,22,16,27,14.90
2015,09,22,16,28,15.00
2015,09,22,16,29,15.10
2015,09,22,16,30,15.10
2015,09,22,16,31,15.20
2015,09,22,16,32,15.20
2015,09,22,16,33,15.20
2015,09,22,16,34,15.10
2015,09,22,16,35,15.10
2015,09,22,16,36,15.10
2015,09,22,16,37,15.10
2015,09,22,16,38,15.10
2015,09,22,16,39,15.10
2015,09,22,16,40,15.00
2015,09,22,16,41,15.10
2015,09,22,16,42,15.10
2015,09,22,16,43,15.10
2015,09,22,16,44,15.00
2015,09,22,16,45,15.00
2015,09,22,16,46,15.10
2015,09,22,16,47,15.00
2015,09,22,16,48,14.90
2015,09,22,16,49,14.80
2015,09,22,16,50,14.80
2015,09,22,16,51,14.60
2015,09,22,16,52,14.50
2015,09,22,16,53,14.50
2015,09,22,16,54,14.40
2015,09,22,16,55,14.50
2015,09,22,16,56,14.40
2015,09,22,16,57,14.50
2015,09,22,16,58,14.50
2015,09,22,16,59,14.50
2015,09,22,17,00,14.50
2015,09,22,17,01,14.50
2015,09,22,17,02,14.60
2015,09,22,17,03,14.60
2015,09,22,17,04,14.50
2015,09,22,17,05,14.40
2015,09,22,17,06,14.20
2015,09,22,17,07,14.20
2015,09,22,17,08,14.20
2015,09,22,17,09,14.20
2015,09,22,17,10,14.20
2015,09,22,17,11,14.30
2015,09,22,17,12,14.40
2015,09,22,17,13,14.40
2015,09,22,17,14,14.50
2015,09,22,17,15,14.50
2015,09,22,17,16,14.50
2015,09,22,17,17,14.50
2015,09,22,17,18,14.60
2015,09,22,17,19,14.60
2015,09,22,17,20,14.70
2015,09,22,17,21,14.70
2015,09,22,17,22,14.70
2015,09,22,17,23,14.80
2015,09,22,17,24,14.80
2015,09,22,17,25,14.80
2015,09,22,17,26,14.70
2015,09,22,17,27,14.60
2015,09,22,17,28,14.40
2015,09,22,17,29,14.20
2015,09,22,17,30,14.00
2015,09,22,17,31,14.00
2015,09,22,17,32,14.00
2015,09,22,17,33,14.00
2015,09,22,17,34,14.10
2015,09,22,17,35,14.20
2015,09,22,17,36,14.20
2015,09,22,17,37,14.20
2015,09,22,17,38,14.20
2015,09,22,17,39,14.30
2015,09,22,17,40,14.40
2015,09,22,17,41,14.40
2015,09,22,17,42,14.40
2015,09,22,17,43,14.40